Location: Kershaw
(34.5481°N, 80.5823°W)
Time: 15:48:12
(UTC+00:00)

Transit 2A - Pass Details

Date: 05 October 2022
Orbit: 598 x 959 km, 66.7° (Epoch: 06 December)

Event Time Altitude Azimuth Distance (km) Brightness Sun altitude
Rises 02:41:09 0° 184° (S) 2,986 - -44.3°
Reaches altitude 10° 02:43:41 10° 174° (S) 2,030 - -44.7°
Maximum altitude 02:47:43 32° 111° (ESE) 1,059 - -45.4°
Drops below altitude 10° 02:51:36 10° 48° (NE) 1,947 - -46.1°
Sets 02:53:58 0° 38° (NE) 2,844 - -46.5°
